TFL6BH LGMT-EHAM

Flight info

Callsign TFL6BH
Flight time N/A
Altitude 38000
Route ERESO UN128 PEREN UL863 EVIVI L863 OKANA DCT RAVAK DCT BABIT DCT SASAL DCT DEXIT DCT MAPOX L604 BIGGE DCT AMSAN T281 NORKU
Aircraft B38M/M-SADE2E3FGHIJ1RWXYZ/LB1

Departure

Time N/A
Airport Mytilene International Airport (LGMT)

Arrival

Time 2026-05-05 14:24
Airport Amsterdam Airport Schiphol (EHAM)
Time Latitude Longitude Altitude Speed Heading
2026-05-05 11:35 40.40100 24.33991 37145 ft 411 kts 307°
2026-05-05 11:35 40.41727 24.30914 37382 ft 410 kts 307°
2026-05-05 11:35 40.43354 24.27833 37609 ft 410 kts 306°
2026-05-05 11:36 40.44978 24.24755 37830 ft 410 kts 306°
2026-05-05 11:36 40.46580 24.21715 38020 ft 410 kts 306°
2026-05-05 11:36 40.48205 24.18629 38079 ft 411 kts 306°
2026-05-05 11:37 40.51443 24.12472 38070 ft 409 kts 306°
2026-05-05 11:37 40.54672 24.06322 38063 ft 409 kts 306°
2026-05-05 11:38 40.57899 24.00169 38062 ft 409 kts 307°
2026-05-05 11:38 40.59798 23.97429 38045 ft 404 kts 323°
2026-05-05 11:38 40.62189 23.95496 38073 ft 404 kts 332°
2026-05-05 11:39 40.67226 23.92112 38055 ft 407 kts 333°
2026-05-05 11:39 40.72323 23.88843 38052 ft 407 kts 333°
2026-05-05 11:40 40.77429 23.85616 38051 ft 407 kts 333°
2026-05-05 11:40 40.82542 23.82390 38048 ft 407 kts 334°
2026-05-05 11:41 40.87652 23.79160 38054 ft 407 kts 333°
2026-05-05 11:41 40.92763 23.75924 38038 ft 407 kts 333°
2026-05-05 11:42 40.97861 23.72692 38034 ft 407 kts 333°
2026-05-05 11:42 41.02973 23.69444 38030 ft 408 kts 333°
2026-05-05 11:43 41.08089 23.66189 38030 ft 408 kts 333°
2026-05-05 11:43 41.13206 23.62927 38037 ft 409 kts 333°
2026-05-05 11:44 41.18333 23.59653 38032 ft 409 kts 333°
2026-05-05 11:44 41.23465 23.56369 38035 ft 410 kts 333°
2026-05-05 11:45 41.28603 23.53071 38031 ft 410 kts 333°
2026-05-05 11:45 41.33731 23.49774 38027 ft 410 kts 333°
2026-05-05 11:46 41.38864 23.46468 38037 ft 410 kts 333°
2026-05-05 11:46 41.43948 23.43162 38040 ft 409 kts 333°
2026-05-05 11:47 41.49062 23.39831 38042 ft 409 kts 333°
2026-05-05 11:47 41.54179 23.36493 38049 ft 409 kts 333°
2026-05-05 11:48 41.61848 23.31478 38053 ft 409 kts 333°
2026-05-05 11:48 41.66932 23.28145 38054 ft 409 kts 333°
2026-05-05 11:49 41.72038 23.24793 38048 ft 408 kts 333°
2026-05-05 11:49 41.76274 23.22008 38055 ft 408 kts 333°
2026-05-05 11:50 41.81369 23.18652 38062 ft 408 kts 333°
2026-05-05 11:50 41.86466 23.15289 38060 ft 408 kts 333°
2026-05-05 11:51 41.91565 23.11918 38066 ft 408 kts 333°
2026-05-05 11:51 41.96662 23.08543 38061 ft 408 kts 333°
2026-05-05 11:52 42.01757 23.05163 38069 ft 408 kts 333°
2026-05-05 11:52 42.06853 23.01776 38057 ft 408 kts 333°
2026-05-05 11:53 42.11947 22.98384 38057 ft 409 kts 333°
2026-05-05 11:53 42.17043 22.94986 38056 ft 409 kts 333°
2026-05-05 11:54 42.22139 22.91581 38061 ft 408 kts 333°
2026-05-05 11:54 42.27223 22.88179 38062 ft 408 kts 333°
2026-05-05 11:55 42.32310 22.84766 38070 ft 408 kts 333°
2026-05-05 11:55 42.37391 22.81352 38075 ft 408 kts 333°
2026-05-05 11:56 42.42444 22.77950 38067 ft 408 kts 333°
2026-05-05 11:56 42.47531 22.74520 38074 ft 409 kts 333°
2026-05-05 11:57 42.52615 22.71086 38072 ft 408 kts 333°
2026-05-05 11:57 42.57701 22.67644 38075 ft 409 kts 333°
2026-05-05 11:58 42.62789 22.64193 38072 ft 409 kts 332°
2026-05-05 11:58 42.67881 22.60735 38074 ft 409 kts 332°
2026-05-05 11:59 42.72967 22.57273 38076 ft 409 kts 332°
2026-05-05 11:59 42.78053 22.53805 38074 ft 409 kts 332°
2026-05-05 12:00 42.83136 22.50334 38071 ft 409 kts 332°
2026-05-05 12:00 42.87849 22.46036 38060 ft 409 kts 323°
2026-05-05 12:01 42.92421 22.41418 38073 ft 409 kts 323°
2026-05-05 12:01 42.96983 22.36784 38072 ft 409 kts 323°
2026-05-05 12:02 43.01508 22.32178 38057 ft 408 kts 323°
2026-05-05 12:02 43.06065 22.27531 38076 ft 409 kts 323°
2026-05-05 12:03 43.10622 22.22874 38075 ft 409 kts 323°
2026-05-05 12:03 43.15179 22.18209 38073 ft 410 kts 323°
2026-05-05 12:04 43.19740 22.13530 38055 ft 409 kts 323°
2026-05-05 12:04 43.24294 22.08851 38047 ft 409 kts 323°
2026-05-05 12:05 43.28849 22.04161 38053 ft 410 kts 323°
2026-05-05 12:05 43.33410 21.99457 38045 ft 410 kts 322°
2026-05-05 12:06 43.37971 21.94741 38041 ft 410 kts 322°
2026-05-05 12:06 43.42530 21.90021 38048 ft 411 kts 322°
2026-05-05 12:07 43.47092 21.85286 38043 ft 411 kts 322°
2026-05-05 12:07 43.51656 21.80541 38052 ft 411 kts 322°
2026-05-05 12:08 43.56221 21.75787 38054 ft 412 kts 322°
2026-05-05 12:08 43.60793 21.71016 38053 ft 412 kts 322°
2026-05-05 12:09 43.65368 21.66233 38046 ft 413 kts 322°
2026-05-05 12:09 43.69875 21.61325 38046 ft 413 kts 320°
2026-05-05 12:10 43.74296 21.56245 38028 ft 413 kts 320°
2026-05-05 12:10 43.78728 21.51171 38044 ft 414 kts 320°
2026-05-05 12:11 43.83129 21.46125 38040 ft 414 kts 320°
2026-05-05 12:11 43.87565 21.41029 38028 ft 414 kts 320°
2026-05-05 12:12 43.91998 21.35927 38014 ft 415 kts 320°
2026-05-05 12:12 43.96434 21.30810 38019 ft 415 kts 320°
2026-05-05 12:13 44.00874 21.25679 38022 ft 415 kts 320°
2026-05-05 12:13 44.05312 21.20540 38028 ft 416 kts 320°
2026-05-05 12:14 44.09750 21.15391 38021 ft 416 kts 320°
2026-05-05 12:14 44.14194 21.10224 38024 ft 416 kts 320°
2026-05-05 12:15 44.18635 21.05050 38016 ft 416 kts 320°
2026-05-05 12:15 44.23079 20.99861 38013 ft 417 kts 319°
2026-05-05 12:16 44.27527 20.94659 38011 ft 417 kts 319°
2026-05-05 12:16 44.31974 20.89445 38028 ft 418 kts 319°
2026-05-05 12:17 44.36422 20.84220 38020 ft 418 kts 319°
2026-05-05 12:17 44.40868 20.78988 38017 ft 418 kts 319°
2026-05-05 12:18 44.45319 20.73737 38013 ft 419 kts 319°
2026-05-05 12:18 44.49770 20.68478 38000 ft 419 kts 319°
2026-05-05 12:19 44.54220 20.63207 38012 ft 419 kts 319°
2026-05-05 12:19 44.58675 20.57920 38005 ft 420 kts 319°
2026-05-05 12:20 44.63130 20.52622 38015 ft 420 kts 319°
2026-05-05 12:20 44.67582 20.47316 38017 ft 420 kts 319°
2026-05-05 12:21 44.72045 20.41986 38021 ft 421 kts 319°
2026-05-05 12:21 44.76506 20.36647 38023 ft 421 kts 319°
2026-05-05 12:22 44.80968 20.31296 38019 ft 422 kts 319°
2026-05-05 12:22 44.85429 20.25935 38018 ft 422 kts 319°
2026-05-05 12:23 44.89865 20.20592 37990 ft 422 kts 319°
2026-05-05 12:23 44.94331 20.15202 37993 ft 423 kts 319°
2026-05-05 12:24 44.98796 20.09801 37991 ft 423 kts 318°
2026-05-05 12:24 45.03269 20.04381 37989 ft 423 kts 318°
2026-05-05 12:25 45.07725 19.98968 37991 ft 424 kts 318°
2026-05-05 12:25 45.12199 19.93523 37997 ft 424 kts 318°
2026-05-05 12:26 45.16672 19.88066 37991 ft 424 kts 318°
2026-05-05 12:26 45.21149 19.82593 37996 ft 425 kts 318°
2026-05-05 12:27 45.25627 19.77107 37984 ft 425 kts 318°
2026-05-05 12:27 45.30103 19.71612 37983 ft 426 kts 318°
2026-05-05 12:28 45.34583 19.66099 37983 ft 426 kts 318°
2026-05-05 12:28 45.39063 19.60574 37975 ft 426 kts 318°
2026-05-05 12:29 45.43546 19.55034 37976 ft 427 kts 318°
2026-05-05 12:29 45.48030 19.49481 37977 ft 427 kts 318°
2026-05-05 12:30 45.52517 19.43911 37968 ft 428 kts 317°
2026-05-05 12:30 45.56968 19.38374 37974 ft 428 kts 317°
2026-05-05 12:31 45.61459 19.32776 37978 ft 428 kts 317°
2026-05-05 12:31 45.65948 19.27167 37977 ft 429 kts 317°
2026-05-05 12:32 45.70434 19.21549 37978 ft 429 kts 317°
2026-05-05 12:32 45.74926 19.15915 37977 ft 429 kts 317°
2026-05-05 12:33 45.79415 19.10272 37980 ft 430 kts 317°
2026-05-05 12:33 45.83904 19.04617 37976 ft 430 kts 317°
2026-05-05 12:34 45.88394 18.98946 37971 ft 430 kts 317°
2026-05-05 12:34 45.92875 18.93242 37965 ft 430 kts 314°
2026-05-05 12:35 45.96722 18.86695 37967 ft 430 kts 309°
2026-05-05 12:35 46.00532 18.80072 37966 ft 430 kts 308°
2026-05-05 12:36 46.04334 18.73435 37963 ft 430 kts 308°
2026-05-05 12:36 46.08137 18.66780 37970 ft 430 kts 308°
2026-05-05 12:37 46.11909 18.60163 37971 ft 430 kts 308°
2026-05-05 12:37 46.15719 18.53461 37977 ft 430 kts 308°
2026-05-05 12:38 46.19483 18.46826 37980 ft 430 kts 308°
2026-05-05 12:38 46.23266 18.40141 37977 ft 430 kts 308°
2026-05-05 12:39 46.27049 18.33440 37974 ft 430 kts 308°
2026-05-05 12:39 46.30828 18.26729 37966 ft 430 kts 308°
2026-05-05 12:40 46.33993 18.21096 37960 ft 430 kts 308°
2026-05-05 12:40 46.37742 18.14412 37967 ft 431 kts 308°
2026-05-05 12:41 46.41510 18.07674 37961 ft 430 kts 308°
2026-05-05 12:41 46.45278 18.00923 37962 ft 430 kts 307°
2026-05-05 12:42 46.49038 17.94165 37960 ft 430 kts 307°
2026-05-05 12:42 46.52791 17.87408 37955 ft 430 kts 307°
2026-05-05 12:43 46.56539 17.80641 37961 ft 430 kts 307°
2026-05-05 12:43 46.60286 17.73860 37951 ft 430 kts 307°
2026-05-05 12:44 46.64023 17.67079 37955 ft 430 kts 307°
2026-05-05 12:44 46.67757 17.60289 37949 ft 429 kts 307°
2026-05-05 12:45 46.71483 17.53496 37950 ft 429 kts 307°
2026-05-05 12:45 46.75205 17.46692 37944 ft 429 kts 307°
2026-05-05 12:46 46.78922 17.39882 37944 ft 429 kts 307°
2026-05-05 12:46 46.82632 17.33070 37945 ft 429 kts 307°
2026-05-05 12:47 46.86334 17.26253 37936 ft 428 kts 306°
2026-05-05 12:47 46.90003 17.19479 37944 ft 428 kts 306°
2026-05-05 12:48 46.93694 17.12651 37935 ft 428 kts 306°
2026-05-05 12:48 46.97378 17.05817 37929 ft 428 kts 306°
2026-05-05 12:49 47.01059 16.98972 37921 ft 428 kts 306°
2026-05-05 12:49 47.04736 16.92116 37918 ft 428 kts 306°
2026-05-05 12:50 47.08408 16.85256 37916 ft 428 kts 306°
2026-05-05 12:50 47.12071 16.78392 37905 ft 427 kts 306°
2026-05-05 12:51 47.15731 16.71519 37898 ft 427 kts 306°
2026-05-05 12:51 47.19385 16.64643 37896 ft 427 kts 306°
2026-05-05 12:52 47.23035 16.57759 37887 ft 427 kts 305°
2026-05-05 12:52 47.26683 16.50861 37884 ft 427 kts 305°
2026-05-05 12:53 47.30431 16.44067 37875 ft 428 kts 307°
2026-05-05 12:53 47.34225 16.37312 37870 ft 427 kts 307°
2026-05-05 12:54 47.39874 16.27205 37862 ft 428 kts 306°
2026-05-05 12:55 47.43678 16.20376 37854 ft 428 kts 306°
2026-05-05 12:55 47.47416 16.13649 37846 ft 428 kts 306°
2026-05-05 12:56 47.51189 16.06844 37842 ft 428 kts 306°
2026-05-05 12:56 47.54955 16.00032 37841 ft 428 kts 306°
2026-05-05 12:57 47.58721 15.93205 37838 ft 428 kts 306°
2026-05-05 12:57 47.62488 15.86358 37842 ft 428 kts 306°
2026-05-05 12:58 47.66250 15.79502 37836 ft 429 kts 306°
2026-05-05 12:58 47.70014 15.72627 37839 ft 429 kts 306°
2026-05-05 12:59 47.73773 15.65742 37835 ft 429 kts 306°
2026-05-05 12:59 47.77527 15.58849 37826 ft 429 kts 306°
2026-05-05 13:00 47.83150 15.48492 37818 ft 429 kts 306°
2026-05-05 13:01 47.90656 15.34605 37811 ft 431 kts 306°
2026-05-05 13:01 47.94416 15.27623 37801 ft 432 kts 306°
2026-05-05 13:02 47.98179 15.20614 37798 ft 433 kts 306°
2026-05-05 13:02 48.01936 15.13599 37799 ft 432 kts 306°
2026-05-05 13:03 48.05662 15.06624 37804 ft 433 kts 306°
2026-05-05 13:03 48.09413 14.99585 37796 ft 433 kts 306°
2026-05-05 13:04 48.13161 14.92534 37789 ft 433 kts 306°
2026-05-05 13:04 48.16903 14.85474 37790 ft 433 kts 306°
2026-05-05 13:05 48.20641 14.78404 37781 ft 433 kts 306°
2026-05-05 13:05 48.24377 14.71318 37784 ft 433 kts 306°
2026-05-05 13:06 48.28105 14.64229 37774 ft 433 kts 305°
2026-05-05 13:06 48.31830 14.57129 37778 ft 433 kts 305°
2026-05-05 13:07 48.35550 14.50019 37776 ft 433 kts 305°
2026-05-05 13:07 48.39268 14.42891 37781 ft 433 kts 305°
2026-05-05 13:08 48.42976 14.35767 37779 ft 433 kts 305°
2026-05-05 13:08 48.46677 14.28637 37783 ft 433 kts 305°
2026-05-05 13:09 48.50384 14.21475 37785 ft 433 kts 305°
2026-05-05 13:09 48.54089 14.14299 37788 ft 433 kts 305°
2026-05-05 13:10 48.57788 14.07116 37793 ft 433 kts 305°
2026-05-05 13:10 48.61480 13.99927 37787 ft 433 kts 305°
2026-05-05 13:11 48.65167 13.92731 37797 ft 433 kts 304°
2026-05-05 13:11 48.68856 13.85516 37794 ft 433 kts 304°
2026-05-05 13:12 48.72517 13.78336 37790 ft 433 kts 304°
2026-05-05 13:12 48.76210 13.71112 37787 ft 434 kts 306°
2026-05-05 13:13 48.79995 13.63982 37789 ft 434 kts 306°
2026-05-05 13:13 48.83773 13.56832 37778 ft 434 kts 306°
2026-05-05 13:14 48.87544 13.49673 37783 ft 435 kts 305°
2026-05-05 13:14 48.91320 13.42487 37779 ft 435 kts 305°
2026-05-05 13:15 48.95088 13.35296 37781 ft 435 kts 305°
2026-05-05 13:15 48.98853 13.28090 37776 ft 435 kts 305°
2026-05-05 13:16 49.02622 13.20859 37773 ft 436 kts 305°
2026-05-05 13:16 49.06381 13.13626 37774 ft 436 kts 305°
2026-05-05 13:17 49.10136 13.06383 37770 ft 436 kts 304°
2026-05-05 13:17 49.13890 12.99121 37764 ft 436 kts 304°
2026-05-05 13:18 49.17616 12.91895 37769 ft 436 kts 304°
2026-05-05 13:18 49.21365 12.84602 37764 ft 436 kts 304°
2026-05-05 13:19 49.25110 12.77298 37765 ft 436 kts 304°
2026-05-05 13:19 49.28857 12.69969 37755 ft 437 kts 304°
2026-05-05 13:20 49.32596 12.62636 37764 ft 437 kts 304°
2026-05-05 13:20 49.36336 12.55280 37761 ft 438 kts 304°
2026-05-05 13:21 49.40077 12.47903 37759 ft 438 kts 304°
2026-05-05 13:21 49.43811 12.40519 37760 ft 438 kts 304°
2026-05-05 13:22 49.47545 12.33116 37757 ft 438 kts 304°
2026-05-05 13:22 49.51247 12.25754 37761 ft 438 kts 303°
2026-05-05 13:23 49.54998 12.18273 37762 ft 439 kts 303°
2026-05-05 13:23 49.58694 12.10881 37762 ft 439 kts 303°
2026-05-05 13:24 49.62413 12.03425 37768 ft 439 kts 303°
2026-05-05 13:24 49.66132 11.95945 37764 ft 439 kts 303°
2026-05-05 13:25 49.69844 11.88459 37771 ft 440 kts 303°
2026-05-05 13:25 49.73561 11.80941 37770 ft 440 kts 303°
2026-05-05 13:26 49.77271 11.73417 37770 ft 440 kts 303°
2026-05-05 13:26 49.80975 11.65884 37771 ft 440 kts 303°
2026-05-05 13:27 49.84676 11.58334 37774 ft 441 kts 303°
2026-05-05 13:27 49.88381 11.50756 37776 ft 441 kts 303°
2026-05-05 13:28 49.92081 11.43164 37780 ft 441 kts 302°
2026-05-05 13:28 49.95774 11.35567 37790 ft 441 kts 302°
2026-05-05 13:29 49.99455 11.27970 37792 ft 441 kts 302°
2026-05-05 13:29 50.03142 11.20343 37793 ft 441 kts 302°
2026-05-05 13:30 50.06822 11.12704 37798 ft 441 kts 302°
2026-05-05 13:30 50.09883 11.06336 37798 ft 442 kts 302°
2026-05-05 13:31 50.13562 10.98659 37806 ft 442 kts 302°
2026-05-05 13:31 50.17235 10.90973 37801 ft 442 kts 302°
2026-05-05 13:32 50.20909 10.83263 37811 ft 443 kts 302°
2026-05-05 13:32 50.24578 10.75542 37805 ft 443 kts 302°
2026-05-05 13:33 50.28250 10.67790 37813 ft 443 kts 302°
2026-05-05 13:33 50.31912 10.60036 37811 ft 443 kts 302°
2026-05-05 13:34 50.35573 10.52264 37812 ft 443 kts 301°
2026-05-05 13:34 50.39226 10.44483 37812 ft 443 kts 301°
2026-05-05 13:35 50.42874 10.36690 37817 ft 443 kts 301°
2026-05-05 13:35 50.46516 10.28887 37820 ft 443 kts 301°
2026-05-05 13:36 50.50147 10.21087 37807 ft 443 kts 301°
2026-05-05 13:36 50.53763 10.13294 37822 ft 444 kts 301°
2026-05-05 13:37 50.57392 10.05448 37828 ft 444 kts 301°
2026-05-05 13:37 50.61023 9.97576 37829 ft 444 kts 301°
2026-05-05 13:38 50.64646 9.89697 37816 ft 444 kts 301°
2026-05-05 13:38 50.68267 9.81801 37819 ft 445 kts 301°
2026-05-05 13:39 50.71883 9.73890 37820 ft 444 kts 301°
2026-05-05 13:39 50.75493 9.65968 37817 ft 444 kts 301°
2026-05-05 13:40 50.79095 9.58040 37820 ft 444 kts 301°
2026-05-05 13:40 50.82691 9.50101 37827 ft 444 kts 301°
2026-05-05 13:41 50.86283 9.42146 37821 ft 444 kts 300°
2026-05-05 13:41 50.89857 9.34208 37825 ft 444 kts 300°
2026-05-05 13:42 50.93439 9.26232 37827 ft 444 kts 300°
2026-05-05 13:42 50.97007 9.18265 37829 ft 444 kts 300°
2026-05-05 13:43 51.00582 9.10260 37825 ft 444 kts 300°
2026-05-05 13:43 51.04148 9.02251 37827 ft 444 kts 300°
2026-05-05 13:44 51.07708 8.94231 37824 ft 444 kts 300°
2026-05-05 13:44 51.11258 8.86212 37823 ft 444 kts 300°
2026-05-05 13:45 51.14992 8.78364 37834 ft 446 kts 304°
2026-05-05 13:45 51.18887 8.70665 37814 ft 446 kts 303°
2026-05-05 13:46 51.22731 8.62991 37831 ft 446 kts 303°
2026-05-05 13:46 51.26590 8.55259 37830 ft 446 kts 303°
2026-05-05 13:47 51.30450 8.47502 37830 ft 446 kts 303°
2026-05-05 13:47 51.34605 8.40122 37864 ft 450 kts 310°
2026-05-05 13:48 51.39068 8.33103 37842 ft 449 kts 310°
2026-05-05 13:48 51.43527 8.26106 37859 ft 449 kts 310°
2026-05-05 13:49 51.47981 8.19101 37854 ft 448 kts 310°
2026-05-05 13:49 51.52426 8.12089 37851 ft 447 kts 310°
2026-05-05 13:50 51.56856 8.05081 37859 ft 447 kts 310°
2026-05-05 13:50 51.61273 7.98072 37859 ft 446 kts 310°
2026-05-05 13:51 51.65683 7.91054 37863 ft 446 kts 310°
2026-05-05 13:51 51.70086 7.84029 37865 ft 445 kts 310°
2026-05-05 13:52 51.74479 7.76997 37871 ft 445 kts 310°
2026-05-05 13:52 51.78861 7.69963 37872 ft 444 kts 310°
2026-05-05 13:53 51.81054 7.66436 37693 ft 443 kts 310°
2026-05-05 13:53 51.83221 7.62944 37205 ft 437 kts 310°
2026-05-05 13:53 51.85353 7.59505 36751 ft 431 kts 310°
2026-05-05 13:53 51.87445 7.56125 36254 ft 428 kts 310°
2026-05-05 13:54 51.89567 7.52692 35738 ft 425 kts 310°
2026-05-05 13:54 51.91643 7.49328 35235 ft 422 kts 310°
2026-05-05 13:54 51.93684 7.46017 34745 ft 419 kts 309°
2026-05-05 13:54 51.95737 7.42682 34252 ft 417 kts 309°
2026-05-05 13:55 51.97780 7.39358 33727 ft 415 kts 309°
2026-05-05 13:55 51.99812 7.36051 33170 ft 413 kts 309°
2026-05-05 13:55 52.01834 7.32754 32658 ft 410 kts 309°
2026-05-05 13:55 52.03832 7.29490 32187 ft 406 kts 309°
2026-05-05 13:56 52.05818 7.26241 31714 ft 403 kts 310°
2026-05-05 13:56 52.07784 7.23021 31253 ft 401 kts 310°
2026-05-05 13:56 52.09741 7.19814 30789 ft 398 kts 310°
2026-05-05 13:56 52.11686 7.16623 30334 ft 396 kts 310°
2026-05-05 13:57 52.13618 7.13449 29878 ft 394 kts 310°
2026-05-05 13:57 52.15469 7.10193 29328 ft 389 kts 303°
2026-05-05 13:57 52.17115 7.06720 28877 ft 385 kts 304°
2026-05-05 13:57 52.18773 7.03328 28484 ft 381 kts 304°
2026-05-05 13:58 52.20427 6.99972 28075 ft 378 kts 304°
2026-05-05 13:58 52.22080 6.96650 27575 ft 378 kts 305°
2026-05-05 13:58 52.23736 6.93338 27169 ft 374 kts 305°
2026-05-05 13:58 52.25375 6.90058 26753 ft 372 kts 305°
2026-05-05 13:59 52.28639 6.83511 25805 ft 372 kts 306°
2026-05-05 13:59 52.30271 6.80231 25318 ft 372 kts 306°
2026-05-05 14:00 52.33541 6.73653 24308 ft 375 kts 306°
2026-05-05 14:00 52.34629 6.71464 23940 ft 377 kts 306°
2026-05-05 14:00 52.36841 6.67007 23266 ft 377 kts 307°
2026-05-05 14:00 52.38493 6.63674 22719 ft 377 kts 307°
2026-05-05 14:01 52.40144 6.60339 22215 ft 376 kts 307°
2026-05-05 14:01 52.41771 6.57047 21735 ft 367 kts 307°
2026-05-05 14:01 52.43352 6.53846 21275 ft 356 kts 307°
2026-05-05 14:01 52.44885 6.50738 20828 ft 346 kts 307°
2026-05-05 14:02 52.46260 6.47576 20312 ft 335 kts 293°
2026-05-05 14:02 52.46875 6.43987 19870 ft 323 kts 274°
2026-05-05 14:02 52.47103 6.40331 19472 ft 323 kts 274°
2026-05-05 14:02 52.47328 6.36650 19067 ft 324 kts 274°
2026-05-05 14:03 52.47535 6.32971 18650 ft 325 kts 274°
2026-05-05 14:03 52.47732 6.29269 18224 ft 326 kts 274°
2026-05-05 14:03 52.47920 6.25606 17742 ft 327 kts 274°
2026-05-05 14:03 52.48105 6.21894 17298 ft 327 kts 274°
2026-05-05 14:04 52.48288 6.18177 16867 ft 326 kts 274°
2026-05-05 14:04 52.48468 6.14462 16438 ft 326 kts 274°
2026-05-05 14:04 52.48646 6.10761 16017 ft 325 kts 274°
2026-05-05 14:04 52.48824 6.07061 15592 ft 325 kts 274°
2026-05-05 14:05 52.49000 6.03375 15173 ft 320 kts 274°
2026-05-05 14:05 52.49171 5.99778 14699 ft 313 kts 274°
2026-05-05 14:05 52.49337 5.96276 14323 ft 303 kts 274°
2026-05-05 14:05 52.49496 5.92866 13945 ft 298 kts 274°
2026-05-05 14:06 52.49654 5.89487 13547 ft 297 kts 274°
2026-05-05 14:06 52.49809 5.86113 13121 ft 295 kts 274°
2026-05-05 14:06 52.49963 5.82760 12731 ft 294 kts 274°
2026-05-05 14:06 52.50117 5.79404 12342 ft 296 kts 274°
2026-05-05 14:07 52.50270 5.76035 11958 ft 296 kts 274°
2026-05-05 14:07 52.50422 5.72665 11573 ft 296 kts 274°
2026-05-05 14:07 52.50574 5.69303 11186 ft 296 kts 274°
2026-05-05 14:07 52.50724 5.65930 10802 ft 296 kts 274°
2026-05-05 14:08 52.50873 5.62555 10415 ft 297 kts 274°
2026-05-05 14:08 52.51023 5.59173 10028 ft 297 kts 273°
2026-05-05 14:08 52.50863 5.55845 9791 ft 290 kts 252°
2026-05-05 14:08 52.50212 5.52788 9699 ft 279 kts 250°
2026-05-05 14:09 52.49589 5.49828 9603 ft 273 kts 250°
2026-05-05 14:09 52.48963 5.46886 9500 ft 273 kts 250°
2026-05-05 14:09 52.48332 5.43944 9391 ft 273 kts 250°
2026-05-05 14:09 52.47701 5.41014 9276 ft 273 kts 250°
2026-05-05 14:10 52.47069 5.38085 9180 ft 272 kts 250°
2026-05-05 14:10 52.46435 5.35153 9074 ft 272 kts 250°
2026-05-05 14:10 52.45802 5.32231 8968 ft 272 kts 250°
2026-05-05 14:10 52.45169 5.29314 8865 ft 272 kts 250°
2026-05-05 14:11 52.44536 5.26400 8759 ft 271 kts 250°
2026-05-05 14:11 52.43903 5.23491 8655 ft 271 kts 250°
2026-05-05 14:11 52.43278 5.20625 8554 ft 270 kts 250°
2026-05-05 14:11 52.42638 5.17691 8448 ft 270 kts 250°
2026-05-05 14:12 52.42005 5.14797 8343 ft 270 kts 250°
2026-05-05 14:12 52.41373 5.11911 8240 ft 269 kts 250°
2026-05-05 14:12 52.40740 5.09023 8142 ft 269 kts 250°
2026-05-05 14:12 52.40117 5.06185 8037 ft 268 kts 250°
2026-05-05 14:13 52.39487 5.03318 7927 ft 268 kts 250°
2026-05-05 14:13 52.38856 5.00448 7830 ft 267 kts 250°
2026-05-05 14:13 52.38225 4.97588 7729 ft 267 kts 250°
2026-05-05 14:13 52.37597 4.94741 7622 ft 266 kts 250°
2026-05-05 14:14 52.36969 4.91898 7524 ft 266 kts 250°
2026-05-05 14:14 52.36339 4.89051 7428 ft 266 kts 250°
2026-05-05 14:14 52.35711 4.86217 7313 ft 263 kts 250°
2026-05-05 14:14 52.35098 4.83454 7216 ft 254 kts 250°
2026-05-05 14:15 52.34507 4.80792 7121 ft 244 kts 250°
2026-05-05 14:15 52.33933 4.78212 7028 ft 242 kts 250°
2026-05-05 14:15 52.33433 4.75595 6865 ft 241 kts 263°
2026-05-05 14:15 52.33583 4.72877 6652 ft 242 kts 282°
2026-05-05 14:16 52.33937 4.70180 6448 ft 243 kts 282°
2026-05-05 14:16 52.34296 4.67480 6225 ft 243 kts 282°
2026-05-05 14:16 52.34546 4.64764 5960 ft 242 kts 266°
2026-05-05 14:16 52.34051 4.62176 5705 ft 239 kts 240°
2026-05-05 14:17 52.33201 4.59859 5502 ft 239 kts 239°
2026-05-05 14:17 52.32329 4.57524 5290 ft 242 kts 238°
2026-05-05 14:17 52.31442 4.55177 5060 ft 243 kts 238°
2026-05-05 14:17 52.30557 4.52854 4793 ft 241 kts 238°
2026-05-05 14:18 52.29659 4.50514 4415 ft 242 kts 238°
2026-05-05 14:18 52.29144 4.49179 4196 ft 243 kts 238°
2026-05-05 14:18 52.27921 4.46064 3741 ft 244 kts 233°
2026-05-05 14:18 52.26608 4.44378 3355 ft 241 kts 199°
2026-05-05 14:19 52.25534 4.44007 3106 ft 238 kts 177°
2026-05-05 14:19 52.23505 4.44937 2696 ft 229 kts 147°
2026-05-05 14:19 52.22190 4.46360 2271 ft 225 kts 128°
2026-05-05 14:19 52.21464 4.48509 2111 ft 212 kts 105°
2026-05-05 14:20 52.20988 4.50815 2058 ft 216 kts 99°
2026-05-05 14:20 52.21080 4.53158 1924 ft 207 kts 62°
2026-05-05 14:20 52.21823 4.55178 1993 ft 210 kts 57°
2026-05-05 14:20 52.22583 4.57226 1980 ft 212 kts 58°
2026-05-05 14:21 52.23321 4.59212 2028 ft 196 kts 56°
2026-05-05 14:21 52.23800 4.60457 1920 ft 187 kts 56°
2026-05-05 14:21 52.24461 4.62165 1693 ft 170 kts 56°
2026-05-05 14:21 52.25054 4.63706 1468 ft 156 kts 57°
2026-05-05 14:22 52.25780 4.65594 1199 ft 138 kts 55°
2026-05-05 14:22 52.26119 4.66477 1066 ft 134 kts 54°
2026-05-05 14:22 52.26610 4.67751 901 ft 133 kts 55°
2026-05-05 14:22 52.27093 4.69010 730 ft 132 kts 56°
2026-05-05 14:23 52.27524 4.70125 553 ft 131 kts 56°
2026-05-05 14:23 52.27952 4.71243 391 ft 132 kts 56°
2026-05-05 14:23 52.28450 4.72517 231 ft 133 kts 57°
2026-05-05 14:23 52.28931 4.73773 53 ft 128 kts 59°
2026-05-05 14:24 52.29372 4.74923 1 ft 104 kts 58°
2026-05-05 14:24 52.29659 4.75670 1 ft 50 kts 58°
2026-05-05 14:24 52.29835 4.76126 -1 ft 48 kts 57°
2026-05-05 14:24 52.30036 4.76538 1 ft 45 kts 31°
2026-05-05 14:25 52.30237 4.76717 1 ft 18 kts 25°
2026-05-05 14:25 52.30326 4.76859 1 ft 19 kts 57°
2026-05-05 14:25 52.30395 4.77035 1 ft 18 kts 57°
2026-05-05 14:25 52.30445 4.77142 1 ft 9 kts 33°
2026-05-05 14:26 52.30510 4.77125 1 ft 11 kts 328°
2026-05-05 14:26 52.30576 4.77057 1 ft 7 kts 328°
2026-05-05 14:26 52.30581 4.77052 1 ft 0 kts 328°
2026-05-05 14:28 52.30589 4.77044 1 ft 4 kts 328°
2026-05-05 14:28 52.30639 4.76991 1 ft 13 kts 319°
2026-05-05 14:28 52.30696 4.76824 1 ft 21 kts 334°
2026-05-05 14:29 52.30761 4.76736 1 ft 10 kts 351°
2026-05-05 14:29 52.30787 4.76721 1 ft 5 kts 340°
2026-05-05 14:29 52.30805 4.76711 1 ft 2 kts 340°
2026-05-05 14:29 52.30808 4.76709 1 ft 0 kts 340°